Wind_Speed
29 27 24 21 18 17 17 18 19 20 19 19 19 19 19 19 19 20 19 19 18 17 16 15 15 14 13 13 13 13 13 13 12 12 12 12 12 13 13 14 14 15 15 15 16 16 17 17 17 17 17 17 17 17 17 16 16 16 16 16 15 15 15 15 15 16 16 16 16 16 16 16 16 15 14 14 14 14 15 15 16 16 16 15 15 14
26 22 18 16 15 16 17 18 19 19 19 18 18 18 19 19 19 20 19 18 17 16 15 14 14 13 13 13 13 13 13 13 13 13 13 13 13 14 14 15 15 16 16 17 17 17 17 18 18 18 17 17 17 17 17 16 16 16 15 15 15 15 15 15 15 15 16 16 16 16 15 15 14 14 13 13 13 13 14 15 15 14 14 14 13 13
22 18 16 16 16 16 18 18 18 18 17 18 18 18 19 19 20 19 18 17 16 15 14 13 13 13 13 13 13 13 13 14 14 14 14 14 14 15 15 16 16 16 17 17 17 17 17 17 17 17 16 16 16 16 15 15 15 14 14 14 14 14 14 14 14 14 14 14 14 14 14 13 13 13 13 13 13 13 13 14 13 13 13 12 12 11
19 18 17 17 17 18 18 18 18 17 17 17 18 19 20 20 19 19 17 16 15 14 13 13 12 12 13 13 13 13 14 14 14 14 14 15 15 15 16 16 16 17 17 17 17 17 16 16 15 15 14 14 14 14 13 13 13 13 13 12 12 12 12 12 13 13 13 13 13 12 12 12 13 13 13 13 13 13 13 13 13 12 12 12 11 11
20 19 19 18 18 18 19 18 18 17 17 18 19 20 20 19 18 17 16 15 14 13 12 12 12 12 13 13 13 13 14 14 14 14 15 15 16 16 16 16 16 16 16 16 16 15 15 14 13 13 12 12 12 12 11 11 11 11 11 11 11 11 11 11 11 12 12 12 12 12 12 12 12 12 13 13 13 13 13 13 12 12 12 12 12 11
20 20 20 19 19 19 19 18 18 18 18 19 20 20 19 18 17 16 15 14 13 12 12 12 12 12 13 13 13 13 14 14 14 15 15 16 16 16 16 16 16 16 15 15 14 13 13 12 11 11 11 10 10 10 10 10 10 10 10 10 10 10 10 11 11 11 11 11 11 11 11 11 12 12 12 12 12 13 13 13 13 12 12 12 12 11
21 21 21 20 20 19 19 19 19 19 19 20 20 19 18 17 16 15 14 13 13 12 12 12 12 12 12 13 13 14 14 14 15 15 16 16 16 16 16 15 15 15 14 14 13 12 11 11 10 10 10 10 9 9 9 9 9 9 9 9 10 10 10 10 10 10 10 10 11 11 11 11 11 12 12 12 12 12 12 12 12 12 12 12 12 12
22 22 21 21 20 20 20 20 20 20 20 19 19 18 17 16 15 14 13 13 13 12 12 12 12 12 12 13 13 14 14 15 15 15 15 16 15 15 15 14 14 14 13 13 12 11 11 10 10 10 10 9 9 8 8 8 8 8 9 9 9 9 9 9 10 10 10 10 10 10 11 11 11 11 11 12 12 12 12 12 12 12 12 12 12 11
23 23 22 21 21 20 20 20 20 20 19 18 17 16 15 15 14 13 13 13 13 13 13 12 12 12 13 13 14 14 15 15 15 15 15 15 14 14 13 13 13 13 13 12 12 11 10 10 10 9 9 9 8 8 8 8 8 8 8 8 8 9 9 9 9 9 9 10 10 10 10 10 11 11 11 11 11 11 11 11 11 11 12 12 11 11
24 23 22 22 21 20 20 20 20 19 17 16 16 15 14 13 13 12 12 13 13 13 13 13 13 13 13 14 14 15 15 15 15 14 14 13 13 13 12 13 13 13 12 12 11 10 10 9 9 9 8 8 8 7 7 7 7 7 7 8 8 8 8 8 9 9 9 9 9 10 10 10 10 10 10 11 11 10 10 10 10 11 11 11 11 10
24 23 22 21 21 21 20 19 18 18 16 15 15 15 14 13 13 12 12 13 13 13 13 13 13 13 13 14 14 15 15 14 14 13 13 12 12 12 12 12 12 12 11 11 10 9 9 9 8 8 8 7 7 7 7 7 7 7 7 7 7 7 7 8 8 8 8 9 9 9 9 9 9 10 10 10 10 9 9 9 9 10 10 10 10 9
23 22 22 21 21 20 19 18 18 17 16 15 15 14 14 13 12 12 12 12 13 13 12 13 13 13 13 13 14 15 14 14 13 12 12 12 11 11 11 11 11 11 10 9 9 8 8 8 8 8 7 7 7 6 6 6 6 6 6 6 6 6 6 7 7 7 7 8 8 8 8 8 9 9 9 8 8 8 8 8 8 8 8 8 8 8
22 21 21 20 20 20 19 18 17 16 16 15 15 14 13 12 11 11 12 12 13 13 13 13 13 13 13 14 14 14 14 13 12 12 11 11 11 11 10 10 10 9 9 8 8 8 8 8 8 7 7 7 6 6 6 6 5 5 5 5 5 5 5 6 6 6 7 7 7 7 7 7 7 7 7 7 7 7 7 7 7 7 7 7 7 8
21 20 20 19 19 19 18 17 16 16 15 14 13 12 12 11 11 11 12 12 13 13 13 13 13 13 13 14 14 13 13 12 12 11 11 11 11 10 10 10 9 9 9 8 8 8 8 8 7 7 7 6 6 6 5 5 5 4 4 4 4 4 5 5 5 5 6 6 6 6 6 6 6 6 6 6 6 6 6 6 6 6 6 6 6 7
20 19 19 19 18 18 17 16 15 14 14 13 12 11 11 12 12 12 12 13 13 13 13 13 13 13 14 14 13 13 12 12 11 11 11 11 10 10 10 10 10 9 9 8 8 8 8 7 7 7 6 6 6 5 5 5 4 4 4 3 3 4 4 4 4 5 5 5 5 6 6 6 6 6 6 6 6 6 6 6 6 5 5 5 5 6
18 18 17 17 17 16 15 14 13 13 13 12 12 12 12 12 13 13 13 13 13 13 13 13 13 13 14 13 13 12 12 12 11 11 11 11 10 9 10 10 10 10 9 8 8 8 8 7 7 6 6 6 5 5 5 4 4 3 3 3 3 3 4 4 4 4 4 5 5 5 5 5 5 6 6 6 6 6 6 6 5 5 5 5 5 5
17 16 16 15 14 14 13 13 12 12 12 12 12 12 12 12 13 13 13 13 13 14 14 13 13 14 14 13 12 12 12 12 12 12 12 11 10 9 10 10 10 10 9 8 8 8 7 7 6 6 6 6 5 5 5 4 4 3 3 3 3 3 4 4 4 4 4 5 5 5 5 5 5 6 6 6 6 6 6 6 6 6 5 5 5 5
16 15 14 13 13 13 12 12 12 12 12 12 12 12 13 13 13 14 14 14 14 13 13 13 14 14 13 13 12 12 12 13 13 12 12 11 10 9 10 10 10 9 9 8 8 7 7 6 6 6 6 5 5 5 5 4 4 4 3 3 3 4 4 4 4 4 5 5 5 5 6 6 6 6 6 6 6 6 6 6 6 6 6 6 6 6
14 14 13 12 12 12 12 12 12 12 12 12 12 12 13 14 14 14 14 14 13 13 13 13 14 13 13 13 12 12 13 13 13 12 12 11 10 9 10 10 10 9 9 8 8 7 6 6 6 6 5 5 5 5 4 4 4 4 4 4 4 4 4 4 5 5 5 5 6 6 6 6 6 6 6 6 7 7 7 7 7 7 7 7 7 7
13 13 12 12 12 12 12 12 12 12 11 12 12 13 13 14 14 14 14 13 13 13 14 13 13 13 13 13 12 12 12 12 12 12 11 11 10 9 10 10 10 9 9 8 7 6 6 5 5 5 5 5 5 5 5 4 4 4 4 4 4 4 5 5 5 5 6 6 6 6 7 7 7 7 7 7 7 7 7 7 8 8 8 8 8 8
12 12 12 12 12 12 12 12 11 11 12 12 13 13 13 13 13 13 13 13 13 13 13 13 13 13 13 13 13 12 12 12 12 12 11 10 10 9 9 9 9 9 8 8 7 6 5 5 5 5 5 5 5 5 5 5 5 5 5 5 5 5 5 5 6 6 6 6 7 7 7 7 7 8 8 8 8 8 8 8 8 9 9 9 9 9
12 12 12 13 13 12 12 11 11 12 13 13 13 13 13 13 12 12 12 12 12 13 13 13 13 13 13 13 13 12 11 11 11 11 11 10 9 9 9 9 9 9 8 7 6 5 5 5 6 6 5 5 5 5 5 5 5 5 5 5 5 6 6 6 6 6 6 7 7 7 7 8 8 8 8 8 9 9 9 9 9 9 9 9 9 9
13 13 13 13 13 12 12 12 12 13 13 13 12 12 12 12 12 11 12 12 12 13 13 13 13 13 13 13 12 12 11 11 11 11 10 10 9 9 9 9 9 9 8 7 6 5 5 6 6 6 5 5 5 5 5 5 6 6 6 6 6 6 6 6 6 7 7 7 7 7 8 8 8 9 9 9 9 9 9 10 10 10 10 10 10 10
13 13 13 13 12 12 12 12 12 13 13 13 13 13 13 13 13 13 13 13 13 13 13 12 12 13 13 13 13 12 11 11 11 11 10 10 9 9 9 9 9 9 8 7 6 5 5 6 6 6 6 6 6 6 6 6 6 6 6 6 6 6 6 7 7 7 7 7 8 8 8 8 9 9 9 9 9 10 10 10 10 10 10 10 11 11
12 12 12 12 12 12 12 12 12 13 13 13 13 13 13 13 13 13 13 13 13 13 13 12 12 13 13 13 13 12 11 11 11 10 10 10 9 9 9 9 9 9 8 7 6 6 6 6 6 6 6 6 6 6 6 6 6 6 6 6 6 7 7 7 7 8 8 8 8 8 9 9 9 9 9 10 10 10 10 10 10 11 11 11 11 11
11 11 11 11 12 12 12 12 12 13 13 13 13 13 13 12 12 12 12 12 12 12 12 12 12 12 12 12 12 12 11 10 10 10 10 10 9 9 9 9 9 9 9 7 6 6 7 7 7 7 7 7 7 7 6 6 6 6 6 7 7 7 8 8 8 8 8 9 9 9 9 10 10 10 10 10 10 10 10 10 11 11 11 11 11 11
10 10 11 11 11 12 12 12 12 12 12 12 12 12 12 12 12 12 11 11 11 11 11 12 11 11 12 12 12 11 11 10 10 10 10 9 9 9 9 9 9 9 9 8 7 7 7 7 8 8 7 7 7 7 7 7 7 7 7 7 8 8 8 8 9 9 9 9 9 10 10 10 10 10 10 10 10 10 11 11 11 11 12 12 12 12
10 10 11 11 11 11 11 11 11 11 11 11 11 11 11 11 11 11 11 11 11 11 11 11 11 11 11 11 11 10 10 10 10 10 10 9 9 9 9 9 10 10 9 9 8 8 8 8 8 8 8 8 8 8 7 7 7 7 8 8 9 9 9 9 9 9 9 10 10 10 10 10 11 11 11 11 11 11 11 11 11 12 12 12 12 12
10 10 11 11 11 11 10 10 10 11 11 11 11 11 10 10 11 11 11 10 10 11 11 11 10 11 11 11 10 10 10 9 9 9 9 9 9 9 9 9 10 10 10 10 9 9 9 9 9 9 9 9 9 8 8 8 8 8 8 9 9 9 9 9 9 9 10 10 10 10 10 10 10 11 11 11 11 11 11 12 12 12 13 13 12 12
10 10 10 10 10 10 10 10 10 11 11 11 11 10 10 10 10 10 11 10 10 11 11 10 10 10 10 10 10 10 10 9 9 9 9 9 9 9 9 10 11 11 10 10 10 10 10 9 9 9 9 10 9 9 8 8 8 8 9 9 9 10 10 10 9 9 10 10 10 10 10 10 10 10 11 11 11 11 11 12 12 13 13 13 13 12
10 10 9 9 9 9 10 10 10 11 11 11 10 10 10 10 10 10 11 11 11 11 11 11 10 10 10 10 10 10 10 10 10 10 10 10 10 10 10 10 11 11 11 11 10 10 10 9 10 9 10 10 10 10 9 8 8 8 9 10 10 10 10 9 9 9 10 10 10 10 10 10 10 10 10 11 11 11 12 12 13 13 13 13 13 12
9 9 9 9 9 9 10 10 10 11 11 10 10 10 10 10 10 10 11 11 11 11 11 11 10 10 10 10 10 10 10 10 10 10 10 10 11 11 10 11 11 12 12 12 11 10 9 9 9 10 10 10 10 10 9 9 8 9 9 10 10 10 9 9 9 9 10 10 10 10 10 10 10 10 10 11 11 11 12 12 13 13 13 13 13 12
9 9 9 9 9 9 9 10 10 10 10 10 10 10 10 10 10 10 11 11 11 11 10 10 10 10 10 10 10 10 10 10 10 11 11 11 11 11 11 11 12 12 13 12 12 12 11 10 10 10 10 10 11 11 10 9 9 9 9 10 10 10 10 9 9 9 10 10 10 10 10 10 10 10 10 11 11 11 12 12 13 13 13 13 13 13
9 9 9 9 9 9 9 9 9 10 10 10 10 9 9 10 10 10 11 11 10 10 10 10 10 10 10 10 10 11 11 11 11 11 11 12 12 12 12 12 13 13 13 13 13 13 12 12 11 10 10 11 11 12 11 10 9 9 10 10 10 10 10 10 9 10 10 10 10 10 10 10 10 10 11 11 11 11 12 12 12 13 13 13 13 13
9 9 9 9 9 9 9 9 9 9 9 9 10 10 9 10 10 10 10 10 10 10 10 10 10 10 10 10 11 11 12 12 12 12 12 12 13 13 13 13 13 13 13 13 13 13 12 12 12 11 10 10 11 12 11 10 10 10 10 10 10 10 10 10 10 10 10 10 11 11 11 11 11 11 11 11 11 12 12 12 12 13 13 13 13 13
8 8 8 8 8 9 9 9 9 9 9 9 10 10 10 9 9 9 9 9 9 9 9 9 9 10 10 10 11 12 13 13 13 13 13 13 13 13 13 13 13 13 14 14 14 13 13 12 12 11 11 10 10 11 12 11 11 11 11 11 11 11 10 10 10 10 11 11 11 11 11 11 11 11 11 11 12 12 12 12 13 13 13 13 13 14
8 8 8 8 8 8 8 8 8 9 9 9 10 10 9 9 9 9 8 8 9 9 9 9 9 10 10 10 11 12 13 13 13 13 13 13 13 13 14 14 14 14 14 14 14 14 14 13 13 12 11 11 11 11 11 12 12 11 11 11 11 11 10 10 10 11 11 11 12 12 11 11 11 11 12 12 12 12 13 13 13 13 13 13 13 14
8 8 8 8 8 8 8 8 8 9 9 9 9 9 9 9 8 8 8 8 8 8 9 9 10 10 10 11 12 12 13 13 13 13 13 13 13 13 14 14 13 14 14 14 14 14 14 14 13 12 12 11 11 11 11 12 12 12 12 12 11 11 11 11 11 11 12 12 12 12 12 12 12 12 12 12 12 13 13 13 14 14 14 14 14 14
8 8 8 8 8 8 8 8 9 9 9 9 9 9 9 8 8 8 8 8 8 8 9 9 10 10 11 11 12 12 13 13 13 13 13 13 13 13 13 13 13 14 14 14 15 15 14 14 13 13 12 11 11 11 12 12 12 12 13 12 12 12 12 11 11 12 12 12 13 13 13 13 13 12 13 13 13 13 14 14 14 14 14 14 14 14
8 8 8 8 8 8 8 9 9 9 9 9 9 9 9 9 9 9 9 9 9 9 9 9 10 10 11 11 12 12 13 13 13 13 13 13 13 13 13 14 14 14 14 15 15 15 15 14 14 13 13 12 11 11 11 11 12 13 13 13 13 13 12 12 12 12 13 13 13 13 13 13 13 13 13 13 14 14 14 14 15 15 15 15 15 15
7 8 8 8 8 8 8 8 9 9 9 9 9 9 9 9 9 9 9 9 9 9 9 10 10 11 11 11 12 12 13 13 13 13 13 13 13 13 13 14 14 14 14 15 15 15 15 15 14 14 13 13 13 12 11 11 12 12 13 13 13 13 13 13 12 13 13 14 14 14 14 14 14 14 14 14 14 14 14 15 15 15 15 15 15 15
7 8 8 8 8 8 8 8 9 9 9 9 9 9 9 9 9 10 10 10 10 10 10 11 11 11 11 12 12 12 13 13 14 14 14 14 14 14 14 14 14 15 15 15 15 15 15 15 15 15 14 14 13 13 12 11 11 12 12 13 13 14 14 14 14 13 14 14 15 15 15 15 15 15 14 15 15 15 15 15 15 15 15 15 15 15
8 8 8 7 7 7 8 8 8 8 9 9 9 9 9 9 9 10 10 10 11 11 11 11 11 12 12 12 12 12 13 13 14 14 14 14 14 14 14 15 15 15 15 16 16 16 16 16 16 16 15 15 15 14 12 11 11 11 12 13 13 14 15 15 15 14 14 15 15 16 16 16 15 15 15 15 15 16 16 16 16 16 15 15 15 15
7 7 7 7 7 7 7 8 8 8 8 9 9 9 9 9 10 10 10 10 11 11 12 12 12 12 12 12 12 13 13 14 14 15 15 15 15 15 15 15 16 16 16 16 16 16 16 16 16 16 16 16 16 15 13 11 10 11 12 13 14 14 15 16 16 15 15 16 16 17 17 17 16 16 16 16 16 16 16 16 16 16 16 16 16 16
7 7 8 7 7 8 8 8 8 8 9 9 9 9 10 10 10 10 10 11 11 12 12 12 13 13 13 12 12 13 14 14 15 15 16 16 16 16 16 16 16 16 16 17 17 17 17 17 17 17 17 17 16 15 14 12 11 11 12 13 14 15 16 16 16 16 16 17 17 18 18 18 17 17 16 16 16 16 17 17 17 17 17 17 17 17
8 8 8 8 8 8 8 8 8 8 9 9 9 10 10 10 10 10 11 11 12 12 13 13 13 13 13 12 12 13 14 15 15 16 16 16 16 16 16 17 17 17 17 17 17 17 17 17 17 17 17 17 17 16 15 13 12 12 12 14 15 16 17 17 17 17 17 18 18 19 19 18 18 18 17 17 17 17 17 17 17 17 17 18 18 18
8 8 8 8 8 8 8 8 8 8 9 9 9 10 10 10 10 11 11 11 12 12 13 13 13 13 13 13 12 13 13 14 15 17 17 17 17 17 17 17 17 17 17 18 18 18 18 18 18 18 18 18 17 17 15 14 13 13 13 15 16 17 17 17 17 17 18 18 19 19 19 19 19 18 18 18 17 17 17 17 17 18 18 18 18 19
8 8 8 8 8 8 8 8 8 8 8 9 9 10 10 10 11 11 11 12 12 12 13 13 14 14 13 13 13 13 13 14 15 16 18 18 18 18 18 18 18 18 18 18 18 18 18 19 19 18 18 18 18 17 16 15 14 14 14 15 16 17 17 17 17 18 18 19 19 19 19 19 19 19 19 18 18 18 17 17 18 18 18 18 19 19
8 8 8 8 8 8 8 8 8 8 9 9 10 10 11 11 11 11 11 11 12 12 12 13 13 14 13 13 13 13 14 14 15 16 17 18 19 19 19 18 18 18 18 19 19 19 19 20 20 19 19 18 18 17 17 16 15 15 15 16 17 17 17 17 17 18 18 19 19 19 19 19 19 19 19 19 19 19 19 18 18 18 18 19 19 19
8 8 8 8 8 8 8 8 8 9 9 9 10 10 10 10 10 10 10 10 11 11 12 12 13 13 13 13 13 14 14 15 15 16 17 18 19 19 19 19 19 19 19 19 19 20 20 21 20 20 19 18 17 17 17 17 16 16 16 16 17 17 17 16 17 18 18 19 19 19 19 19 19 19 19 20 20 20 20 20 19 19 19 19 19 19
8 8 8 8 8 9 9 9 9 9 9 9 9 10 10 9 9 9 9 9 9 10 10 11 12 12 13 13 13 14 14 15 16 16 17 18 19 19 20 20 20 20 20 20 20 20 21 21 21 21 19 18 17 17 17 17 17 17 16 16 16 16 16 16 17 18 18 19 19 19 19 19 19 19 19 20 21 21 21 21 21 20 20 20 20 19
Wind_Direction
271 269 265 258 250 244 243 244 246 249 252 256 259 262 264 267 271 275 277 277 276 275 272 267 262 256 251 247 246 246 247 248 249 250 250 251 253 255 258 262 264 267 268 269 269 268 267 266 264 263 262 261 261 260 260 260 260 260 260 260 260 259 259 260 260 261 261 259 259 260 263 267 269 269 268 266 264 262 262 262 262 262 263 263 263 262
269 265 258 249 243 242 245 249 251 253 254 256 258 261 264 268 272 274 275 274 272 270 266 261 256 250 245 243 243 244 245 247 249 251 252 253 256 259 262 264 267 269 270 270 270 270 269 268 267 265 265 264 263 263 263 262 262 262 262 262 262 262 261 261 261 262 263 264 265 267 269 271 272 273 271 269 266 264 264 265 266 267 267 267 265 263
266 261 253 248 247 249 252 255 257 257 256 256 258 261 265 269 272 273 272 271 269 266 261 255 249 245 241 241 242 244 246 249 251 254 256 258 261 264 266 269 271 272 273 272 271 270 269 268 267 266 265 265 265 265 264 264 264 264 264 264 263 263 263 263 263 263 264 266 268 270 271 272 273 273 272 271 269 268 269 270 272 273 273 272 271 268
261 257 253 254 256 258 259 259 258 258 258 259 261 265 268 269 270 270 269 267 265 260 255 249 244 240 239 241 243 246 249 252 255 259 262 264 267 270 272 274 275 275 275 274 272 270 268 267 266 265 265 264 264 265 265 265 265 265 265 264 264 264 264 264 264 265 266 267 269 270 270 271 271 272 273 272 273 273 274 275 276 277 277 277 275 273
259 257 257 259 261 262 262 261 260 260 261 263 265 267 268 268 268 267 266 263 259 253 248 243 240 238 239 241 245 249 252 256 260 263 267 270 273 275 277 278 279 279 278 276 274 271 269 268 266 265 265 264 264 265 266 266 266 266 266 266 266 266 266 266 266 266 267 268 269 270 271 271 272 273 274 275 276 277 278 279 279 279 279 279 278 276
262 261 262 263 264 264 263 262 262 262 263 265 266 267 266 265 264 263 261 258 252 246 242 240 238 239 240 244 248 253 257 260 264 268 272 275 277 280 281 282 283 282 280 278 276 274 273 272 271 270 269 269 268 268 268 268 268 268 268 268 268 268 267 267 267 268 269 270 270 271 272 272 273 274 275 276 277 278 279 279 280 280 279 279 278 277
263 263 264 264 265 264 264 263 263 264 264 265 265 265 264 263 262 259 255 250 245 241 238 238 239 241 243 247 251 256 261 265 268 272 275 278 280 282 284 284 284 283 282 281 280 280 280 280 279 278 278 277 277 276 274 273 271 271 271 271 270 270 269 269 269 269 270 270 271 272 272 273 273 274 274 275 276 276 277 277 278 278 278 278 277 277
262 263 263 263 263 263 263 263 263 264 264 264 263 263 262 262 259 254 248 243 239 236 236 238 241 244 247 251 255 260 264 268 271 274 276 279 281 283 284 285 285 284 284 284 284 285 286 286 285 285 285 285 284 282 280 278 276 275 274 273 272 271 271 270 270 270 270 270 270 271 271 271 272 272 272 273 273 273 273 274 274 274 274 274 274 274
261 263 264 263 263 262 262 263 263 264 263 262 262 262 261 259 255 248 240 235 234 234 235 238 242 246 251 255 259 262 266 269 272 274 277 279 280 282 283 284 284 284 284 285 286 287 288 287 287 287 287 287 285 284 281 280 278 276 274 273 273 272 271 270 270 270 269 269 269 269 269 269 269 270 270 271 271 271 271 270 269 269 268 269 269 269
260 262 263 263 262 262 262 263 263 263 262 261 261 260 258 254 249 243 237 232 232 235 238 241 244 248 253 258 261 264 267 270 272 274 275 277 278 279 280 280 280 281 281 283 284 285 286 286 286 286 286 286 284 282 280 279 277 276 274 273 272 271 270 269 269 268 267 267 267 267 267 267 268 268 269 269 269 269 268 267 266 265 264 265 265 264
259 260 261 261 261 261 260 261 261 261 260 259 258 257 254 249 243 239 237 236 237 239 242 244 247 251 255 259 263 266 268 270 271 272 273 274 274 275 275 275 275 276 277 278 280 282 283 283 284 284 284 283 282 280 279 277 276 275 274 273 271 270 269 268 267 266 266 265 265 265 265 266 267 267 268 268 268 268 267 266 265 264 263 262 261 258
257 257 258 259 259 259 259 259 259 259 258 256 254 251 247 244 241 237 236 241 244 246 248 251 253 255 257 260 263 266 267 268 268 269 269 270 271 271 271 270 270 271 272 274 277 279 280 280 281 281 281 280 279 279 278 276 275 275 274 273 271 270 268 267 267 265 265 265 264 265 265 266 266 267 267 268 268 268 268 267 266 265 263 261 257 252
255 255 256 257 258 258 258 257 255 255 255 254 253 250 246 243 242 240 238 242 247 251 254 255 257 259 260 261 263 265 266 266 266 266 267 268 270 270 270 270 270 270 272 274 276 278 279 279 279 279 279 278 278 277 276 276 275 274 273 272 271 270 268 267 266 265 265 265 265 265 265 266 267 267 269 269 269 270 271 271 271 269 264 259 254 248
254 254 255 256 256 256 256 255 253 252 254 254 254 252 249 246 245 244 244 245 249 253 255 256 258 260 262 262 263 264 265 265 266 267 268 269 271 272 273 273 274 275 276 278 280 280 279 278 278 278 277 276 276 276 275 274 273 273 272 272 271 269 268 267 266 265 265 265 266 266 266 267 268 269 270 272 273 274 275 276 276 273 268 261 255 249
254 255 255 256 256 255 254 253 252 253 254 253 250 246 244 243 244 246 247 249 252 255 256 257 258 260 261 262 263 264 264 265 267 269 271 271 272 274 276 276 277 278 280 282 282 281 279 278 277 276 275 275 274 274 274 273 274 273 272 271 270 269 267 266 266 266 266 266 267 268 268 269 270 271 272 274 276 277 278 279 279 278 274 267 261 255
255 255 254 255 254 253 252 251 250 249 249 247 245 242 241 242 245 248 250 252 254 256 256 256 257 258 259 260 262 264 265 266 268 270 272 272 273 274 275 276 277 279 280 282 282 280 278 277 276 275 275 273 273 273 274 274 275 275 273 272 270 269 268 268 269 269 269 270 270 271 272 274 274 275 276 277 278 279 279 280 281 280 278 272 266 261
253 252 251 250 250 249 248 247 245 244 244 243 244 244 245 246 248 251 252 253 254 255 256 256 256 256 256 256 259 263 265 267 268 270 271 272 273 272 272 274 276 278 279 280 279 278 277 276 275 274 273 272 272 273 275 276 277 277 277 275 272 271 270 271 272 272 273 273 275 276 277 278 279 280 280 280 280 280 280 279 278 277 275 272 268 264
249 248 246 244 243 244 243 242 242 242 244 244 245 247 248 249 249 250 250 251 252 253 254 255 255 255 257 257 257 259 263 265 267 268 268 270 270 270 270 271 274 276 277 277 276 276 275 274 273 271 271 271 272 273 275 276 278 279 279 277 275 274 273 273 273 274 274 276 277 279 280 281 282 283 282 282 281 280 280 278 276 273 271 268 266 264
245 244 242 241 241 241 242 243 245 246 248 248 248 248 248 248 248 248 248 249 249 249 251 252 254 256 257 259 259 258 259 261 264 265 265 266 267 267 268 269 271 273 274 274 274 274 273 272 269 268 268 269 270 272 274 276 278 279 278 277 276 275 274 272 272 273 274 275 277 279 280 281 283 283 283 282 281 280 278 277 274 272 269 266 264 262
241 241 241 241 242 243 245 248 250 251 251 250 249 248 246 246 246 245 245 245 246 247 248 250 253 255 257 258 258 256 256 259 261 263 263 264 264 264 265 267 269 270 271 271 271 272 270 267 264 263 263 265 267 270 272 274 275 276 276 275 274 274 272 272 272 272 273 275 275 277 278 279 280 280 280 280 279 278 277 276 274 272 270 267 264 262
239 240 243 244 245 247 249 251 251 250 248 246 245 244 243 243 243 242 243 243 244 245 247 248 251 254 256 256 256 256 256 258 259 261 262 263 262 261 262 263 265 267 268 268 268 267 265 261 258 258 259 261 263 265 267 270 272 272 272 272 272 272 272 272 273 273 274 274 275 275 276 277 277 277 277 277 276 276 275 274 274 274 272 269 266 263
242 243 246 248 249 249 248 248 246 245 244 242 241 240 240 240 239 239 241 241 242 243 245 246 248 252 254 255 255 255 255 256 257 258 260 260 259 257 258 260 263 264 265 266 265 262 258 254 252 253 255 257 259 261 263 265 267 269 269 270 271 272 273 274 275 276 277 276 277 277 276 276 276 276 275 275 275 274 273 273 274 274 274 272 270 267
247 247 249 250 250 248 246 243 242 242 242 240 238 237 238 236 236 236 238 239 240 242 244 246 248 251 252 253 254 255 254 255 255 256 257 257 254 253 255 259 261 262 263 264 262 256 251 249 249 251 253 254 256 258 260 262 265 267 268 269 271 273 275 277 278 279 279 280 279 279 278 278 277 276 275 275 275 274 274 273 273 274 274 274 273 271
250 250 250 250 250 248 245 242 241 241 241 239 236 235 235 235 234 235 236 239 241 243 245 247 248 249 251 253 254 254 254 254 254 255 255 254 251 250 252 256 259 260 262 263 259 252 247 246 248 249 251 253 255 257 259 261 263 265 267 270 273 275 278 279 281 281 282 282 282 281 281 280 279 278 277 276 276 275 275 274 274 274 274 274 274 274
253 251 251 250 249 248 245 243 242 241 240 239 237 236 236 236 237 238 240 242 243 244 245 246 246 247 249 252 254 254 254 253 253 253 253 253 251 248 249 253 256 258 260 260 255 250 248 247 248 249 250 252 255 256 258 259 261 264 267 272 275 278 280 282 284 284 285 285 285 284 283 282 282 281 280 279 278 277 276 276 275 275 274 274 274 274
255 253 251 250 249 248 246 244 242 241 240 239 238 238 238 238 238 238 239 240 241 243 244 245 246 247 249 251 252 253 253 253 252 251 251 251 249 247 247 251 253 256 258 257 253 249 248 248 250 250 250 252 254 256 257 259 262 265 269 274 278 280 282 284 286 286 287 287 286 286 285 284 283 282 281 281 280 279 279 278 277 276 275 274 274 274
255 253 251 249 248 246 245 243 241 240 240 240 240 240 240 239 238 238 239 240 242 243 245 246 246 248 250 251 252 252 252 251 250 249 249 249 247 244 245 248 251 253 254 254 250 248 247 249 250 252 251 253 255 256 257 260 263 267 272 276 279 282 284 285 286 287 287 287 287 286 285 284 284 283 283 283 282 281 281 280 279 277 276 275 275 275
254 251 249 247 245 244 243 242 241 240 240 240 240 240 239 238 239 240 241 242 244 245 247 248 248 249 251 252 252 251 250 247 245 245 248 247 244 241 242 246 249 251 251 250 249 247 247 248 251 253 254 255 256 257 258 261 265 269 274 277 280 282 284 285 286 287 286 286 286 285 285 285 284 285 285 285 284 283 283 282 280 279 278 277 277 277
250 248 246 244 243 242 242 241 240 240 239 239 239 239 239 239 241 243 244 244 245 246 248 249 249 249 250 251 251 250 247 243 241 242 245 244 241 240 241 242 245 247 248 248 248 247 247 248 250 253 254 255 256 256 258 261 265 269 273 276 278 280 282 283 285 285 285 284 284 284 284 285 285 285 286 286 286 286 285 284 283 281 280 280 280 279
247 245 244 243 242 242 240 240 239 239 239 239 239 239 239 240 241 242 243 243 245 246 247 247 247 247 247 248 248 247 244 240 239 241 243 242 241 239 240 239 241 244 245 246 246 246 246 247 248 250 251 254 256 257 259 262 265 268 271 273 275 277 279 281 282 282 282 283 283 283 284 284 285 286 287 287 287 287 287 286 285 285 284 284 283 283
243 242 242 241 240 239 238 238 239 239 240 240 239 238 239 240 241 242 243 243 244 245 245 245 244 243 243 243 244 244 243 240 239 241 243 242 241 240 238 236 238 241 243 243 243 243 243 244 245 247 250 254 257 260 262 264 266 267 269 270 272 274 276 278 279 280 280 281 282 282 282 284 284 286 287 288 288 288 288 288 288 288 288 288 287 287
238 239 238 238 237 236 236 236 237 239 241 241 240 238 237 238 240 242 243 243 243 243 243 243 242 241 241 241 241 241 242 240 240 241 242 242 242 241 238 234 236 239 242 242 241 241 240 241 242 245 248 253 259 263 265 266 266 266 267 268 270 272 274 276 277 278 279 280 281 281 282 283 284 286 287 288 288 289 289 289 289 290 290 290 290 290
235 234 235 235 235 235 235 236 237 239 241 242 242 240 238 238 239 241 242 243 243 242 242 242 242 241 240 239 239 239 239 239 239 240 241 242 241 240 237 235 235 237 240 241 242 242 241 241 243 245 248 253 259 263 266 266 265 264 266 267 270 271 273 275 276 277 278 279 280 281 282 283 284 285 286 286 287 287 288 288 289 290 291 291 291 291
231 231 232 232 233 234 235 235 236 238 240 242 243 242 240 239 239 240 241 242 242 242 242 242 242 242 241 239 239 238 238 239 239 239 240 241 241 240 238 235 235 236 239 240 241 243 243 243 243 244 246 253 258 263 265 265 264 264 266 267 269 271 273 274 275 275 276 277 278 279 281 282 283 283 284 284 285 285 286 287 287 289 290 291 291 292
228 228 228 229 230 231 233 234 236 238 239 242 243 243 242 241 239 239 239 240 241 242 242 243 243 243 242 241 240 238 238 240 241 241 240 240 241 241 239 237 236 237 238 239 240 242 242 243 243 242 241 246 255 262 264 264 263 263 265 266 268 269 271 273 273 274 274 275 276 277 278 280 280 281 281 282 282 283 284 284 286 287 288 290 291 292
227 227 228 228 229 230 231 233 235 237 239 241 242 243 243 242 241 240 240 241 242 242 243 244 244 244 243 243 241 239 239 242 243 243 242 242 243 242 241 240 239 238 238 239 240 240 240 241 241 240 239 238 245 255 262 263 262 261 263 264 265 267 268 270 271 272 273 273 274 275 276 277 278 278 279 280 280 281 281 282 283 284 286 288 290 292
226 227 228 229 229 230 232 234 236 238 239 241 243 243 244 244 244 244 244 245 245 245 245 245 245 244 244 243 242 242 243 245 246 246 245 245 246 246 245 244 243 242 240 240 240 240 240 240 240 239 238 236 238 246 256 261 262 261 261 262 263 263 264 266 267 269 269 271 272 273 274 275 276 276 277 278 279 279 280 280 281 283 284 287 289 290
222 224 226 228 229 231 233 234 236 238 239 241 243 244 246 246 247 247 248 248 248 247 247 246 246 245 244 243 243 244 246 246 247 247 247 247 247 248 248 248 246 245 243 243 243 243 243 241 240 238 236 236 238 243 250 256 260 260 261 261 261 260 260 262 263 265 266 267 269 271 272 273 274 276 276 277 278 278 279 280 281 282 284 285 286 288
217 220 223 226 227 229 230 233 235 237 240 242 243 244 245 246 247 248 249 249 249 248 248 247 247 247 246 245 245 246 247 247 247 247 247 247 247 248 249 249 248 247 246 245 246 246 246 245 244 241 238 236 238 242 247 252 255 258 260 262 261 260 260 260 261 262 263 265 267 269 271 272 274 275 275 276 277 278 279 280 282 283 284 285 286 286
218 220 223 225 226 227 229 231 233 237 238 240 241 243 244 246 247 248 249 249 249 249 249 249 249 248 248 248 248 249 250 250 249 249 248 247 246 246 247 248 249 248 248 247 247 248 249 249 248 247 245 242 241 241 244 248 252 255 259 261 262 262 261 260 260 260 262 264 266 269 271 272 274 274 276 277 278 279 280 281 282 283 284 285 285 287
223 225 226 226 227 227 228 230 232 234 235 236 238 240 242 244 246 247 250 250 250 250 249 249 249 249 249 249 250 250 252 252 252 252 250 249 248 247 246 247 248 248 248 248 249 250 251 252 252 252 251 249 247 245 246 248 251 254 257 259 261 263 263 262 260 261 263 265 266 268 271 273 274 275 277 278 279 280 281 282 282 283 284 284 284 286
225 227 228 228 227 226 225 226 228 230 232 234 236 238 241 244 246 248 250 252 253 253 253 253 252 252 251 251 251 252 253 254 255 255 254 253 252 250 248 248 248 249 250 250 250 251 252 253 254 255 255 254 253 252 251 251 251 253 254 256 259 262 263 262 261 261 263 265 267 268 270 272 274 276 278 279 281 281 282 282 282 283 284 285 285 285
225 227 228 228 227 226 225 226 228 230 232 235 237 240 242 245 248 251 253 255 255 256 257 258 258 257 256 255 255 255 255 255 256 256 257 256 255 254 252 251 250 250 251 253 253 254 254 255 256 257 258 259 259 258 256 254 253 254 253 254 255 257 258 261 262 263 263 264 266 268 269 271 273 275 277 279 280 281 282 282 283 283 284 285 286 287
226 228 230 230 229 228 229 230 231 233 235 237 239 241 244 247 250 252 254 256 257 258 259 261 262 262 260 258 258 257 258 258 258 258 257 257 257 256 255 254 253 253 253 254 256 256 257 257 257 258 259 261 262 262 261 259 257 255 254 254 254 253 254 258 262 264 264 265 266 267 268 270 272 274 275 276 277 278 280 281 283 283 285 286 287 289
226 229 231 232 232 232 233 233 234 236 238 240 242 243 245 248 251 252 254 256 257 258 259 261 262 261 260 259 258 258 259 260 260 260 259 258 258 257 257 256 255 255 255 256 257 257 258 259 259 260 261 262 264 265 265 265 262 259 256 255 255 256 256 258 260 261 263 264 265 267 268 269 271 272 273 273 274 275 277 278 280 282 284 286 288 290
225 227 230 231 233 233 234 235 236 238 240 242 243 245 247 249 251 253 254 256 257 258 258 260 260 259 259 258 257 256 256 258 260 261 261 261 260 259 258 258 257 257 257 257 258 258 259 260 260 261 262 263 265 266 267 268 268 264 259 257 257 258 258 258 258 259 260 262 264 266 268 269 271 271 271 271 271 272 273 275 276 278 280 283 286 288
223 225 228 229 231 233 234 235 237 239 241 243 245 246 248 250 251 252 253 254 255 256 258 259 259 258 258 257 255 254 253 254 257 260 263 263 262 261 260 260 259 259 259 259 259 259 259 259 260 261 263 265 266 267 269 270 270 269 265 261 260 260 260 259 259 259 260 261 263 264 267 269 270 270 270 270 270 269 270 271 273 275 277 280 282 284
223 225 227 229 231 234 236 237 238 240 242 244 246 247 249 250 251 252 252 253 254 256 257 258 258 258 257 256 255 254 253 253 255 258 262 264 265 264 263 262 261 261 261 261 261 261 261 261 261 262 263 265 268 270 271 272 272 271 268 265 263 263 263 263 262 261 261 262 263 264 266 267 268 269 270 271 270 268 267 267 269 272 275 277 280 281
225 228 230 232 234 236 238 239 241 241 243 244 245 247 248 250 251 252 253 254 255 257 258 259 260 260 260 258 257 257 256 255 256 258 260 263 265 266 265 264 263 263 262 262 263 263 263 264 263 264 265 267 270 272 274 274 273 271 269 268 267 267 266 265 263 262 262 263 264 265 267 268 269 270 271 272 271 270 268 267 268 271 274 277 279 280
228 230 233 236 239 241 243 243 244 244 245 246 247 249 250 252 253 254 256 258 259 261 262 264 265 265 265 263 262 260 259 258 258 258 259 262 264 266 266 266 266 265 264 264 264 264 265 265 266 267 268 270 272 274 276 276 275 273 271 270 270 269 268 266 263 262 262 263 265 266 268 269 270 271 272 273 273 273 273 272 272 274 277 279 280 281
232 234 237 241 244 247 249 250 250 250 251 251 253 255 256 258 259 261 262 265 268 270 271 272 272 272 271 269 267 265 263 262 261 260 259 260 262 264 265 266 266 266 266 266 266 266 266 267 268 268 269 271 273 275 275 276 276 276 274 273 272 271 269 267 264 263 263 264 265 267 269 270 271 272 273 274 275 276 277 277 278 279 282 283 284 284
Height
1514 1514 1514 1515 1515 1516 1516 1517 1518 1518 1519 1519 1519 1519 1519 1519 1519 1519 1519 1519 1519 1519 1519 1520 1519 1519 1519 1519 1520 1520 1520 1520 1520 1520 1520 1521 1521 1521 1521 1521 1521 1521 1521 1521 1521 1520 1520 1520 1520 1520 1520 1520 1520 1520 1520 1520 1520 1520 1520 1520 1520 1520 1520 1520 1520 1519 1519 1519 1519 1519 1519 1519 1519 1520 1520 1520 1520 1520 1520 1520 1520 1520 1520 1521 1521 1521
1513 1513 1514 1514 1514 1515 1515 1516 1517 1517 1517 1517 1518 1518 1518 1518 1518 1518 1518 1518 1518 1518 1518 1518 1518 1518 1519 1519 1519 1519 1519 1519 1519 1519 1519 1520 1520 1520 1520 1520 1520 1520 1519 1519 1519 1519 1519 1519 1519 1519 1519 1519 1519 1519 1519 1519 1519 1519 1519 1519 1519 1519 1519 1519 1519 1518 1518 1518 1518 1518 1518 1518 1518 1519 1519 1519 1519 1519 1519 1519 1519 1519 1519 1519 1519 1520
1511 1512 1513 1513 1514 1514 1514 1515 1515 1515 1516 1516 1516 1516 1516 1516 1517 1517 1517 1517 1517 1517 1517 1517 1517 1517 1518 1518 1518 1518 1518 1518 1518 1519 1519 1519 1519 1519 1519 1519 1519 1519 1518 1518 1518 1518 1518 1518 1518 1518 1518 1518 1517 1517 1517 1517 1517 1517 1517 1517 1517 1517 1517 1517 1517 1517 1517 1517 1517 1517 1517 1517 1517 1517 1517 1517 1517 1517 1517 1517 1518 1518 1518 1518 1518 1518
1510 1511 1511 1512 1512 1513 1513 1514 1514 1514 1514 1515 1515 1515 1515 1515 1515 1515 1515 1515 1515 1515 1515 1516 1516 1516 1516 1517 1517 1517 1517 1517 1517 1518 1518 1518 1518 1518 1517 1517 1517 1517 1517 1517 1517 1517 1516 1516 1516 1516 1516 1516 1516 1516 1516 1516 1516 1516 1516 1516 1516 1516 1516 1516 1516 1516 1516 1516 1516 1516 1516 1516 1516 1516 1516 1516 1516 1516 1516 1516 1516 1516 1516 1517 1517 1517
1509 1509 1510 1510 1511 1511 1512 1512 1512 1513 1513 1513 1514 1514 1514 1514 1514 1514 1514 1514 1514 1514 1514 1515 1515 1515 1515 1516 1516 1516 1516 1516 1516 1516 1516 1516 1516 1516 1516 1516 1516 1515 1515 1515 1515 1515 1515 1515 1515 1515 1515 1515 1515 1515 1515 1515 1515 1515 1515 1515 1515 1515 1515 1515 1515 1515 1515 1515 1515 1515 1515 1515 1515 1515 1515 1515 1515 1515 1515 1515 1515 1515 1515 1515 1515 1516
1508 1509 1509 1509 1509 1510 1510 1510 1511 1511 1512 1512 1512 1512 1513 1513 1513 1513 1513 1512 1513 1513 1513 1514 1514 1514 1514 1515 1515 1515 1515 1515 1515 1515 1515 1515 1515 1514 1514 1514 1514 1514 1514 1514 1514 1514 1514 1514 1514 1514 1514 1514 1514 1514 1514 1514 1514 1514 1514 1514 1514 1514 1514 1514 1514 1514 1514 1514 1514 1514 1514 1514 1514 1514 1514 1514 1514 1514 1514 1514 1514 1514 1514 1514 1514 1515
1507 1507 1508 1508 1508 1509 1509 1509 1509 1510 1510 1510 1511 1511 1511 1511 1511 1511 1511 1511 1511 1512 1512 1513 1513 1513 1514 1514 1514 1514 1514 1514 1514 1514 1514 1514 1513 1513 1513 1513 1512 1512 1512 1512 1512 1512 1512 1512 1512 1512 1512 1512 1512 1512 1512 1512 1512 1512 1512 1512 1513 1513 1513 1513 1513 1513 1513 1513 1513 1513 1513 1513 1513 1513 1513 1513 1513 1513 1513 1513 1513 1514 1514 1514 1514 1514
1506 1506 1506 1506 1507 1507 1507 1508 1508 1508 1509 1509 1509 1509 1509 1509 1510 1510 1510 1510 1510 1511 1511 1512 1512 1512 1512 1513 1513 1513 1513 1513 1513 1513 1513 1512 1512 1512 1512 1511 1511 1511 1511 1511 1511 1511 1511 1511 1511 1511 1511 1511 1511 1511 1511 1511 1511 1511 1511 1511 1511 1511 1511 1512 1512 1512 1512 1512 1512 1512 1512 1512 1512 1512 1512 1512 1512 1513 1513 1513 1513 1513 1513 1513 1513 1513
1504 1504 1504 1505 1505 1506 1506 1506 1506 1507 1507 1508 1508 1508 1508 1508 1508 1509 1509 1509 1509 1510 1510 1511 1511 1511 1511 1511 1511 1511 1511 1511 1511 1511 1511 1511 1511 1511 1510 1510 1510 1510 1510 1510 1510 1510 1510 1510 1510 1510 1510 1510 1510 1510 1510 1510 1510 1510 1510 1510 1510 1510 1510 1510 1511 1511 1511 1511 1511 1511 1511 1511 1511 1511 1511 1512 1512 1512 1512 1512 1512 1512 1512 1512 1512 1512
1503 1503 1503 1504 1504 1504 1504 1504 1505 1505 1506 1506 1506 1506 1507 1507 1507 1507 1508 1508 1509 1509 1509 1510 1510 1510 1510 1510 1510 1510 1510 1510 1510 1510 1510 1510 1510 1510 1509 1509 1509 1509 1509 1509 1509 1509 1509 1509 1509 1509 1509 1509 1509 1509 1509 1509 1509 1509 1509 1509 1509 1509 1509 1509 1510 1510 1510 1510 1510 1510 1510 1510 1510 1511 1511 1511 1511 1511 1511 1511 1511 1511 1511 1511 1511 1511
1501 1502 1502 1502 1502 1503 1503 1503 1504 1504 1504 1505 1505 1505 1505 1506 1506 1506 1507 1507 1508 1508 1509 1509 1509 1509 1509 1509 1509 1509 1509 1509 1509 1509 1509 1509 1509 1509 1509 1509 1509 1508 1508 1508 1508 1508 1508 1508 1508 1508 1508 1508 1508 1508 1508 1508 1508 1508 1509 1509 1509 1509 1509 1509 1509 1509 1509 1509 1509 1509 1509 1510 1510 1510 1510 1510 1510 1510 1510 1510 1510 1510 1510 1510 1510 1510
1500 1500 1500 1501 1501 1501 1501 1502 1502 1503 1503 1503 1504 1504 1504 1504 1505 1506 1506 1506 1507 1507 1508 1508 1508 1509 1509 1509 1508 1508 1508 1508 1508 1508 1508 1508 1508 1508 1508 1508 1508 1508 1508 1508 1508 1508 1508 1508 1508 1508 1508 1508 1508 1508 1508 1508 1508 1508 1508 1508 1508 1508 1508 1508 1508 1508 1508 1509 1509 1509 1509 1509 1509 1509 1509 1509 1509 1509 1509 1509 1509 1509 1509 1509 1509 1509
1498 1499 1499 1499 1499 1500 1500 1501 1501 1501 1501 1502 1502 1502 1503 1504 1504 1505 1505 1506 1506 1506 1507 1507 1507 1507 1507 1507 1507 1507 1507 1507 1507 1507 1507 1507 1507 1507 1507 1507 1507 1507 1507 1507 1507 1507 1507 1507 1507 1507 1507 1507 1507 1507 1507 1507 1507 1507 1507 1507 1507 1507 1507 1507 1508 1508 1508 1508 1508 1508 1508 1508 1509 1509 1509 1509 1509 1509 1509 1509 1509 1509 1509 1509 1509 1509
1497 1497 1498 1498 1498 1499 1499 1499 1499 1500 1500 1500 1501 1502 1503 1503 1504 1504 1504 1504 1505 1505 1505 1506 1506 1506 1506 1506 1506 1506 1506 1506 1506 1506 1506 1506 1506 1506 1506 1506 1506 1506 1506 1506 1506 1506 1506 1506 1506 1506 1506 1506 1506 1506 1506 1506 1506 1506 1506 1506 1507 1507 1507 1507 1507 1507 1507 1507 1507 1507 1508 1508 1508 1508 1508 1508 1508 1508 1508 1508 1508 1508 1508 1508 1508 1508
1496 1496 1496 1496 1497 1497 1498 1498 1499 1499 1499 1500 1500 1501 1502 1502 1502 1503 1503 1503 1504 1504 1504 1504 1504 1504 1505 1505 1505 1505 1505 1505 1505 1505 1505 1505 1505 1505 1505 1505 1505 1505 1505 1505 1505 1505 1505 1505 1505 1505 1505 1505 1505 1505 1505 1505 1506 1506 1506 1506 1506 1506 1506 1506 1506 1506 1507 1507 1507 1507 1507 1507 1507 1507 1507 1507 1507 1507 1507 1507 1507 1507 1507 1507 1507 1507
1494 1495 1495 1495 1496 1496 1497 1497 1498 1498 1498 1499 1499 1500 1500 1501 1501 1502 1502 1502 1502 1503 1503 1503 1503 1503 1504 1504 1504 1504 1504 1504 1504 1504 1504 1504 1504 1504 1504 1504 1504 1504 1504 1504 1504 1504 1504 1504 1504 1504 1504 1504 1504 1505 1505 1505 1505 1505 1505 1505 1505 1505 1506 1506 1506 1506 1506 1506 1506 1506 1506 1506 1507 1507 1507 1507 1507 1507 1507 1507 1507 1507 1507 1507 1507 1507
1493 1494 1494 1494 1494 1495 1496 1496 1497 1497 1498 1498 1499 1499 1499 1500 1500 1500 1501 1501 1501 1501 1502 1502 1502 1502 1502 1503 1503 1503 1503 1503 1503 1503 1503 1503 1504 1504 1504 1503 1503 1503 1503 1504 1504 1504 1504 1504 1504 1504 1504 1504 1504 1504 1504 1504 1504 1504 1505 1505 1505 1505 1505 1505 1505 1505 1505 1506 1506 1506 1506 1506 1506 1506 1506 1506 1506 1506 1506 1506 1506 1506 1506 1506 1506 1506
1492 1493 1493 1493 1494 1494 1495 1495 1496 1496 1497 1497 1498 1498 1499 1499 1499 1499 1499 1500 1500 1500 1500 1501 1501 1501 1501 1501 1502 1502 1502 1502 1502 1502 1502 1502 1503 1503 1503 1503 1502 1502 1503 1503 1503 1503 1503 1503 1503 1503 1503 1503 1504 1504 1504 1504 1504 1504 1504 1504 1504 1505 1505 1505 1505 1505 1505 1505 1505 1505 1505 1505 1505 1505 1506 1506 1506 1506 1506 1506 1506 1506 1506 1506 1506 1506
1491 1492 1492 1493 1493 1494 1494 1494 1495 1495 1496 1496 1497 1497 1497 1498 1498 1498 1498 1499 1499 1499 1499 1499 1500 1500 1500 1500 1501 1501 1501 1501 1501 1501 1501 1502 1502 1502 1502 1502 1502 1502 1502 1502 1502 1502 1502 1503 1503 1503 1503 1503 1503 1503 1503 1503 1504 1504 1504 1504 1504 1504 1504 1504 1504 1504 1504 1504 1505 1505 1505 1505 1505 1505 1505 1505 1505 1505 1505 1505 1505 1505 1505 1506 1506 1506
1491 1491 1492 1492 1492 1493 1493 1494 1494 1494 1495 1495 1496 1496 1496 1496 1497 1497 1497 1498 1498 1498 1499 1499 1499 1499 1499 1499 1500 1500 1500 1500 1500 1500 1500 1501 1501 1501 1501 1501 1501 1501 1501 1501 1501 1502 1502 1502 1502 1502 1502 1502 1502 1503 1503 1503 1503 1503 1503 1504 1504 1504 1504 1504 1504 1504 1504 1504 1504 1504 1504 1504 1504 1504 1504 1504 1505 1505 1505 1505 1505 1505 1505 1505 1505 1505
1490 1490 1491 1491 1491 1492 1492 1493 1493 1494 1494 1494 1494 1495 1495 1495 1496 1496 1496 1497 1497 1497 1498 1498 1498 1498 1498 1498 1499 1499 1499 1499 1499 1499 1499 1500 1500 1500 1500 1500 1500 1500 1500 1501 1501 1501 1501 1501 1501 1502 1502 1502 1502 1502 1502 1502 1503 1503 1503 1503 1503 1503 1503 1503 1503 1504 1504 1504 1504 1504 1504 1504 1504 1504 1504 1504 1504 1504 1504 1504 1504 1504 1504 1504 1504 1504
1489 1490 1490 1490 1490 1491 1491 1492 1492 1492 1493 1493 1493 1494 1494 1494 1494 1495 1495 1496 1496 1496 1497 1497 1497 1497 1497 1497 1498 1498 1499 1499 1499 1499 1499 1499 1499 1499 1499 1499 1499 1500 1500 1500 1500 1501 1501 1501 1501 1501 1501 1501 1502 1502 1502 1502 1502 1502 1502 1502 1502 1503 1503 1503 1503 1503 1503 1503 1503 1503 1503 1503 1503 1503 1503 1503 1503 1504 1504 1504 1504 1504 1504 1504 1504 1504
1489 1489 1489 1489 1489 1490 1490 1490 1491 1491 1491 1492 1492 1493 1493 1493 1494 1494 1494 1495 1495 1495 1496 1496 1496 1496 1496 1497 1497 1497 1498 1498 1498 1498 1498 1498 1499 1499 1499 1499 1499 1499 1499 1500 1500 1500 1500 1500 1500 1501 1501 1501 1501 1501 1501 1501 1502 1502 1502 1502 1502 1502 1502 1502 1502 1502 1502 1502 1502 1502 1502 1502 1503 1503 1503 1503 1503 1503 1503 1503 1503 1503 1503 1503 1503 1503
1487 1488 1488 1488 1488 1489 1489 1489 1490 1490 1490 1491 1491 1492 1492 1492 1493 1493 1494 1494 1494 1494 1495 1495 1495 1495 1495 1496 1496 1496 1497 1497 1497 1497 1497 1498 1498 1498 1498 1498 1498 1499 1499 1499 1500 1500 1500 1500 1500 1500 1500 1501 1501 1501 1501 1501 1501 1501 1501 1501 1501 1501 1501 1501 1501 1501 1501 1502 1502 1502 1502 1502 1502 1502 1502 1502 1502 1502 1502 1502 1502 1502 1502 1502 1502 1502
1486 1486 1487 1487 1487 1488 1488 1489 1489 1489 1489 1490 1490 1491 1491 1491 1492 1492 1493 1493 1493 1494 1494 1494 1494 1495 1495 1495 1495 1496 1496 1496 1497 1497 1497 1497 1497 1498 1498 1498 1498 1498 1498 1499 1499 1499 1499 1499 1500 1500 1500 1500 1500 1500 1500 1501 1501 1501 1501 1501 1501 1501 1501 1501 1501 1501 1501 1501 1501 1501 1501 1501 1501 1501 1501 1501 1501 1501 1501 1501 1501 1501 1501 1501 1501 1501
1485 1485 1486 1486 1486 1487 1487 1488 1488 1489 1489 1489 1489 1490 1490 1491 1491 1491 1492 1492 1493 1493 1493 1494 1494 1494 1494 1494 1494 1495 1495 1496 1496 1496 1496 1496 1496 1497 1497 1497 1497 1497 1498 1498 1499 1499 1499 1499 1499 1499 1499 1500 1500 1500 1500 1500 1500 1500 1500 1500 1500 1500 1500 1500 1500 1500 1500 1500 1500 1500 1500 1500 1500 1500 1500 1500 1500 1500 1500 1500 1500 1500 1500 1500 1500 1500
1484 1484 1485 1485 1485 1486 1486 1487 1487 1488 1488 1488 1489 1489 1489 1490 1490 1491 1491 1491 1492 1492 1492 1493 1493 1493 1493 1494 1494 1494 1494 1495 1495 1495 1495 1496 1496 1496 1496 1497 1497 1497 1497 1498 1498 1498 1498 1498 1499 1499 1499 1499 1499 1499 1499 1499 1499 1499 1499 1499 1499 1499 1499 1499 1499 1499 1499 1499 1499 1499 1499 1499 1499 1499 1499 1499 1499 1499 1499 1499 1499 1499 1499 1499 1499 1499
1483 1484 1484 1484 1484 1485 1485 1486 1486 1487 1487 1488 1488 1488 1489 1489 1489 1490 1490 1491 1491 1491 1491 1492 1492 1492 1493 1493 1493 1494 1494 1494 1494 1494 1495 1495 1495 1495 1496 1496 1496 1496 1496 1497 1497 1498 1498 1498 1498 1498 1498 1498 1499 1499 1499 1499 1499 1499 1499 1499 1499 1499 1499 1499 1499 1499 1498 1498 1498 1498 1498 1498 1498 1498 1498 1498 1498 1498 1498 1498 1498 1498 1498 1498 1498 1498
1482 1483 1483 1483 1484 1484 1484 1485 1485 1486 1486 1487 1487 1487 1488 1488 1489 1489 1489 1490 1490 1490 1490 1491 1491 1491 1492 1492 1492 1492 1493 1493 1494 1494 1494 1494 1494 1494 1495 1495 1495 1495 1496 1496 1496 1497 1497 1497 1497 1497 1497 1497 1498 1498 1498 1498 1498 1498 1498 1498 1498 1498 1498 1498 1498 1498 1498 1498 1497 1497 1497 1497 1497 1497 1497 1497 1497 1497 1497 1497 1497 1496 1496 1497 1497 1497
1481 1482 1482 1482 1483 1484 1484 1484 1484 1485 1485 1486 1486 1486 1487 1487 1488 1488 1488 1489 1489 1489 1489 1490 1490 1490 1490 1491 1491 1491 1492 1492 1493 1493 1493 1494 1494 1494 1494 1494 1494 1495 1495 1495 1496 1496 1496 1496 1496 1496 1497 1497 1497 1497 1497 1497 1497 1497 1497 1497 1497 1497 1497 1497 1497 1497 1497 1497 1497 1497 1496 1496 1496 1496 1496 1496 1496 1496 1496 1496 1495 1495 1495 1495 1495 1496
1481 1481 1481 1482 1482 1483 1483 1484 1484 1484 1484 1485 1485 1486 1486 1486 1487 1487 1487 1488 1488 1488 1489 1489 1489 1489 1489 1490 1490 1490 1491 1491 1492 1492 1493 1493 1493 1493 1494 1494 1494 1494 1494 1495 1495 1495 1495 1495 1496 1496 1496 1496 1496 1496 1496 1496 1496 1496 1496 1496 1496 1496 1496 1496 1496 1496 1496 1496 1496 1496 1496 1495 1495 1495 1495 1495 1495 1495 1495 1495 1494 1494 1494 1494 1494 1494
1480 1480 1480 1481 1481 1482 1482 1483 1483 1483 1483 1484 1484 1485 1485 1485 1486 1486 1486 1487 1487 1487 1488 1488 1488 1489 1489 1489 1489 1490 1490 1491 1491 1491 1492 1492 1492 1492 1493 1493 1493 1493 1494 1494 1494 1494 1495 1495 1495 1495 1495 1495 1495 1495 1495 1495 1495 1495 1495 1495 1495 1495 1495 1495 1495 1495 1495 1495 1495 1495 1495 1495 1495 1494 1494 1494 1494 1494 1494 1494 1494 1493 1493 1493 1493 1493
1479 1479 1480 1480 1481 1481 1481 1482 1482 1482 1483 1483 1483 1484 1484 1484 1485 1485 1486 1486 1486 1487 1487 1487 1487 1488 1488 1488 1489 1489 1489 1490 1490 1490 1491 1491 1491 1491 1492 1492 1493 1493 1493 1493 1493 1494 1494 1494 1494 1494 1494 1494 1494 1494 1494 1494 1494 1494 1494 1494 1494 1494 1494 1494 1494 1494 1494 1494 1494 1494 1494 1494 1494 1494 1494 1494 1493 1493 1493 1493 1493 1492 1492 1492 1492 1492
1479 1479 1479 1479 1480 1480 1480 1481 1481 1481 1482 1482 1482 1483 1483 1484 1484 1484 1485 1485 1486 1486 1486 1486 1487 1487 1487 1488 1488 1488 1489 1489 1489 1490 1490 1490 1490 1491 1491 1491 1492 1492 1492 1492 1492 1493 1493 1493 1493 1493 1493 1493 1493 1493 1493 1494 1494 1494 1494 1494 1494 1494 1494 1494 1494 1494 1493 1493 1493 1493 1493 1493 1493 1493 1493 1493 1493 1492 1492 1492 1492 1492 1491 1491 1491 1491
1478 1478 1479 1479 1479 1479 1480 1480 1480 1480 1481 1481 1481 1482 1482 1483 1483 1484 1484 1484 1485 1485 1485 1486 1486 1486 1486 1487 1487 1487 1488 1488 1488 1489 1489 1489 1489 1490 1490 1490 1491 1491 1491 1491 1491 1492 1492 1492 1492 1493 1493 1492 1492 1492 1492 1493 1493 1493 1493 1493 1493 1493 1493 1493 1493 1493 1492 1492 1492 1492 1492 1492 1492 1492 1492 1492 1492 1492 1491 1491 1491 1491 1491 1490 1490 1490
1477 1477 1478 1478 1479 1479 1479 1479 1480 1480 1480 1480 1481 1481 1482 1482 1483 1483 1483 1484 1484 1484 1484 1485 1485 1485 1486 1486 1486 1487 1487 1487 1487 1488 1488 1489 1489 1489 1489 1489 1490 1490 1490 1490 1490 1491 1491 1491 1491 1491 1492 1492 1492 1491 1491 1492 1492 1492 1492 1492 1492 1492 1492 1492 1492 1492 1491 1491 1491 1491 1491 1491 1491 1491 1491 1491 1491 1491 1491 1490 1490 1490 1490 1489 1489 1489
1476 1477 1477 1477 1478 1478 1478 1479 1479 1479 1480 1480 1480 1481 1481 1482 1482 1482 1483 1483 1483 1483 1484 1484 1484 1484 1485 1485 1485 1486 1486 1486 1487 1487 1487 1488 1488 1488 1488 1489 1489 1489 1489 1489 1489 1490 1490 1490 1490 1490 1491 1491 1491 1491 1490 1490 1490 1491 1491 1491 1491 1491 1491 1491 1491 1491 1490 1490 1490 1490 1490 1490 1490 1490 1490 1490 1490 1490 1489 1489 1489 1489 1489 1489 1489 1488
1476 1476 1476 1477 1477 1477 1478 1478 1479 1479 1479 1479 1480 1480 1480 1481 1481 1481 1482 1482 1482 1483 1483 1483 1483 1484 1484 1484 1484 1484 1485 1485 1486 1486 1486 1487 1487 1487 1487 1488 1488 1488 1488 1488 1489 1489 1489 1489 1489 1489 1490 1490 1490 1490 1489 1489 1489 1489 1489 1489 1490 1490 1490 1490 1490 1490 1489 1489 1489 1489 1489 1489 1489 1489 1489 1489 1489 1489 1489 1488 1488 1488 1488 1488 1488 1487
1475 1475 1476 1476 1476 1477 1477 1478 1478 1478 1479 1479 1479 1479 1480 1480 1480 1480 1481 1481 1481 1482 1482 1482 1483 1483 1483 1483 1484 1484 1484 1484 1484 1485 1485 1486 1486 1486 1486 1486 1487 1487 1487 1487 1487 1488 1488 1488 1488 1488 1489 1489 1489 1489 1489 1489 1489 1488 1488 1489 1489 1489 1489 1489 1489 1489 1489 1489 1489 1488 1488 1488 1488 1488 1488 1488 1488 1488 1487 1487 1487 1487 1487 1486 1486 1486
1475 1475 1475 1476 1476 1476 1477 1477 1478 1478 1478 1478 1479 1479 1479 1479 1479 1479 1480 1480 1481 1481 1481 1481 1482 1482 1482 1483 1483 1483 1483 1483 1484 1484 1484 1484 1485 1485 1485 1485 1485 1486 1486 1486 1486 1486 1487 1487 1487 1487 1488 1488 1488 1488 1488 1488 1488 1487 1487 1487 1487 1487 1488 1488 1488 1488 1488 1488 1487 1487 1487 1487 1487 1487 1487 1487 1487 1486 1486 1486 1486 1485 1485 1485 1485 1485
1474 1474 1475 1475 1476 1476 1476 1477 1477 1477 1477 1478 1478 1478 1478 1478 1478 1479 1479 1479 1479 1480 1480 1481 1481 1481 1481 1482 1482 1482 1482 1482 1483 1483 1483 1483 1484 1484 1484 1484 1484 1484 1485 1485 1485 1485 1485 1486 1486 1486 1486 1486 1487 1487 1487 1487 1487 1486 1486 1486 1486 1486 1486 1486 1487 1487 1486 1486 1486 1486 1486 1486 1486 1486 1486 1486 1485 1485 1485 1485 1484 1484 1484 1484 1484 1484
1474 1474 1474 1474 1475 1475 1476 1476 1476 1476 1477 1477 1477 1477 1477 1477 1477 1478 1478 1478 1479 1479 1479 1479 1479 1480 1480 1480 1481 1481 1481 1481 1481 1482 1482 1482 1483 1483 1483 1483 1483 1483 1484 1484 1484 1484 1484 1484 1485 1485 1485 1485 1485 1486 1486 1486 1486 1485 1485 1485 1485 1485 1485 1485 1485 1485 1485 1485 1485 1485 1485 1485 1485 1484 1484 1484 1484 1484 1484 1484 1483 1483 1483 1483 1483 1483
1473 1473 1474 1474 1474 1475 1475 1475 1475 1475 1475 1475 1476 1476 1476 1476 1476 1477 1477 1477 1478 1478 1478 1478 1479 1479 1479 1479 1479 1480 1480 1480 1480 1480 1481 1481 1481 1482 1482 1482 1482 1482 1482 1482 1483 1483 1483 1483 1484 1484 1484 1484 1484 1484 1484 1485 1485 1484 1484 1484 1484 1484 1484 1484 1484 1484 1484 1484 1484 1484 1484 1484 1484 1483 1483 1483 1483 1482 1482 1482 1482 1482 1482 1481 1481 1481
1472 1473 1473 1473 1474 1474 1474 1474 1474 1474 1474 1475 1475 1475 1475 1475 1475 1476 1476 1476 1477 1477 1477 1477 1478 1478 1478 1478 1479 1479 1479 1479 1479 1479 1479 1480 1480 1480 1480 1480 1481 1481 1481 1481 1481 1482 1482 1482 1482 1482 1483 1483 1483 1483 1483 1484 1484 1484 1483 1483 1483 1483 1483 1483 1483 1483 1483 1483 1482 1482 1482 1482 1482 1482 1482 1482 1481 1481 1481 1481 1480 1480 1480 1480 1480 1479
1472 1472 1472 1472 1473 1473 1473 1473 1474 1474 1474 1474 1474 1474 1474 1474 1475 1475 1475 1475 1476 1476 1476 1476 1477 1477 1477 1478 1478 1478 1478 1478 1478 1478 1478 1479 1479 1479 1479 1479 1479 1479 1479 1480 1480 1480 1480 1480 1481 1481 1481 1481 1481 1482 1482 1482 1483 1482 1482 1482 1482 1482 1482 1482 1482 1482 1481 1481 1481 1481 1481 1481 1481 1481 1481 1480 1480 1480 1480 1479 1479 1479 1479 1479 1478 1478
1471 1471 1472 1472 1472 1472 1472 1473 1473 1473 1473 1473 1473 1474 1474 1474 1474 1474 1474 1475 1475 1475 1475 1475 1475 1476 1476 1476 1477 1477 1477 1477 1477 1477 1477 1477 1477 1478 1478 1478 1478 1478 1478 1478 1479 1479 1479 1479 1479 1479 1479 1479 1480 1480 1480 1481 1481 1481 1481 1480 1480 1480 1480 1480 1480 1480 1480 1480 1480 1479 1479 1479 1479 1479 1479 1479 1479 1479 1479 1478 1478 1478 1478 1477 1477 1477
1470 1471 1471 1471 1471 1471 1472 1472 1472 1472 1472 1472 1472 1473 1473 1473 1473 1473 1474 1474 1474 1474 1474 1474 1474 1474 1475 1475 1476 1476 1476 1476 1476 1475 1475 1476 1476 1476 1476 1477 1477 1477 1477 1477 1477 1477 1477 1477 1478 1478 1478 1478 1478 1478 1479 1479 1479 1479 1479 1479 1479 1479 1479 1479 1479 1479 1479 1479 1479 1478 1478 1478 1478 1478 1478 1478 1478 1478 1477 1477 1477 1477 1476 1476 1476 1476
1470 1470 1470 1470 1471 1471 1471 1471 1471 1471 1471 1471 1471 1472 1472 1472 1472 1472 1473 1473 1473 1473 1473 1473 1473 1474 1474 1474 1474 1474 1475 1475 1474 1474 1474 1474 1474 1475 1475 1475 1475 1475 1476 1476 1476 1476 1476 1476 1476 1476 1476 1476 1476 1477 1477 1478 1478 1478 1478 1477 1477 1477 1477 1477 1478 1477 1477 1477 1477 1477 1477 1477 1476 1476 1476 1476 1476 1476 1476 1476 1476 1475 1475 1475 1475 1474
1469 1469 1469 1470 1470 1470 1470 1470 1470 1470 1470 1470 1470 1470 1471 1471 1471 1471 1472 1472 1472 1472 1472 1472 1473 1473 1473 1473 1473 1473 1473 1474 1473 1473 1473 1473 1473 1473 1474 1474 1474 1474 1474 1474 1474 1474 1474 1474 1474 1474 1475 1475 1475 1475 1475 1476 1476 1476 1476 1476 1476 1476 1476 1476 1476 1476 1475 1475 1475 1475 1475 1475 1475 1475 1474 1474 1474 1474 1474 1474 1474 1474 1474 1474 1473 1473
1469 1469 1469 1469 1469 1469 1469 1469 1469 1469 1469 1469 1469 1469 1470 1470 1470 1470 1471 1471 1471 1471 1471 1471 1472 1472 1472 1472 1472 1472 1472 1472 1472 1472 1472 1472 1472 1472 1472 1472 1472 1473 1473 1473 1473 1473 1473 1473 1473 1473 1474 1474 1474 1474 1474 1474 1474 1474 1474 1474 1474 1474 1474 1474 1474 1474 1474 1474 1474 1474 1474 1474 1474 1473 1473 1473 1472 1472 1472 1472 1472 1472 1472 1472 1471 1471
1468 1468 1468 1468 1468 1468 1468 1468 1468 1468 1469 1469 1469 1469 1469 1469 1469 1470 1470 1470 1470 1470 1470 1470 1471 1471 1471 1471 1471 1471 1471 1471 1471 1471 1471 1471 1470 1470 1470 1471 1471 1471 1471 1471 1471 1471 1471 1471 1471 1471 1472 1473 1473 1473 1473 1473 1473 1473 1473 1473 1473 1473 1473 1473 1473 1473 1472 1472 1472 1472 1472 1472 1472 1472 1471 1471 1470 1470 1469 1469 1470 1470 1470 1470 1469 1469